TimeMST,TemperatureF,Dew PointF,Humidity,Sea Level PressureIn,VisibilityMPH,Wind Direction,Wind SpeedMPH,Gust SpeedMPH,PrecipitationIn,Events,Conditions,WindDirDegrees,DateUTC
12:53 AM,19.0,8.1,62,30.13,10.0,ENE,3.5,-,N/A,,Clear,70,2013-01-07 07:53:00
1:53 AM,12.9,5.0,71,30.14,10.0,ENE,6.9,-,N/A,,Clear,60,2013-01-07 08:53:00
2:53 AM,15.1,7.0,70,30.13,10.0,ENE,5.8,-,N/A,,Clear,70,2013-01-07 09:53:00
3:53 AM,12.0,3.9,70,30.14,10.0,ENE,5.8,-,N/A,,Clear,70,2013-01-07 10:53:00
4:53 AM,14.0,6.1,71,30.13,10.0,East,5.8,-,N/A,,Clear,90,2013-01-07 11:53:00
5:53 AM,14.0,6.1,71,30.12,10.0,East,5.8,-,N/A,,Clear,80,2013-01-07 12:53:00
6:53 AM,16.0,7.0,68,30.12,10.0,Calm,Calm,-,N/A,,Clear,0,2013-01-07 13:53:00
7:53 AM,9.0,3.0,77,30.17,10.0,Calm,Calm,-,N/A,,Clear,0,2013-01-07 14:53:00
8:53 AM,15.1,6.1,68,30.17,10.0,Calm,Calm,-,N/A,,Clear,0,2013-01-07 15:53:00
9:53 AM,26.1,8.1,47,30.14,10.0,ENE,4.6,-,N/A,,Clear,70,2013-01-07 16:53:00
10:53 AM,32.0,9.0,38,30.12,10.0,Calm,Calm,-,N/A,,Clear,0,2013-01-07 17:53:00
11:53 AM,34.0,10.9,38,30.07,10.0,Calm,Calm,-,N/A,,Clear,0,2013-01-07 18:53:00
1:53 PM,39.0,9.0,29,30.04,10.0,Calm,Calm,-,N/A,,Clear,0,2013-01-07 20:53:00
4:53 PM,33.1,17.1,52,30.06,10.0,Calm,Calm,-,N/A,,Clear,0,2013-01-07 23:53:00
5:53 PM,19.9,10.9,68,30.13,10.0,ESE,5.8,-,N/A,,Clear,120,2013-01-08 00:53:00
6:53 PM,17.1,8.1,68,30.13,10.0,ESE,6.9,-,N/A,,Clear,110,2013-01-08 01:53:00
7:53 PM,15.1,7.0,70,30.18,10.0,NE,9.2,-,N/A,,Clear,50,2013-01-08 02:53:00
8:53 PM,12.0,5.0,73,30.17,10.0,East,6.9,-,N/A,,Clear,90,2013-01-08 03:53:00
9:53 PM,9.0,3.0,77,30.14,10.0,ENE,6.9,-,N/A,,Clear,60,2013-01-08 04:53:00
10:53 PM,9.0,3.0,77,30.11,10.0,ENE,6.9,-,N/A,,Clear,60,2013-01-08 05:53:00
11:53 PM,7.0,1.0,77,30.12,10.0,East,4.6,-,N/A,,Clear,100,2013-01-08 06:53:00